Weather History for PABI - December, 2012

Change the Weather History Date:

Monday, December 17, 2012

  Actual Average Record
Temperature  
Mean Temperature -27 °F -  
Max Temperature -14 °F 5 °F 39 °F (2005)
Min Temperature -40 °F -2 °F -40 °F (2012)
Degree Days  
Heating Degree Days 92    
Moisture  
Dew Point -23 °F    
Average Humidity 70    
Maximum Humidity 77    
Minimum Humidity 56    
Precipitation  
Precipitation 0.00 in - - ()
Sea Level Pressure  
Sea Level Pressure 29.97 in    
Wind  
Wind Speed 7 mph (SE)    
Max Wind Speed 32 mph    
Max Gust Speed 41 mph    
Visibility 8 miles    
Events      
Averages and records for this station are not official NWS values.
T = Trace of Precipitation, MM = Missing Value Source: NWS Daily Summary

Daily Weather History Graph

Daily Weather History Graph

Search for Another Location

Airport or City:

Trip Planner

Search our weather history database for the weather conditions in past years. The results will help you decide how hot, cold, wet, or windy it might be!

Date:

Astronomy

Dec. 17, 2012 Rise Set
Actual Time 10:32 AM AKST 2:46 PM AKST
Civil Twilight 9:14 AM AKST 4:04 PM AKST
Nautical Twilight 8:06 AM AKST 5:12 PM AKST
Astronomical Twilight 7:06 AM AKST 6:12 PM AKST
Moon 11:51 AM AKST (12/17) 10:22 PM AKST (12/17)
Length of Visible Light 6h 49m
Length of Day
4h 14m
Waxing Crescent, 26% of the Moon is Illuminated
Dec 17
Waxing Crescent
Dec 19
First Quarter
Dec 28
Full
Jan 4
Last Quarter
Jan 11
New

Hourly Weather History & Observations

Time (AKST) Temp. Windchill Dew Point Humidity Pressure Visibility Wind Dir Wind Speed Gust Speed Precip Events Conditions
12:53 AM -34.1 °F -49.7 °F - N/A% 30.09 in 10.0 mi SSE 4.6 mph - N/A   Clear
1:53 AM -34.1 °F -46.8 °F - N/A% 30.10 in 10.0 mi South 3.5 mph - N/A   Clear
2:53 AM -34.1 °F -46.8 °F - N/A% 30.10 in 10.0 mi South 3.5 mph - N/A   Clear
3:53 AM -34.1 °F -46.8 °F - N/A% 30.11 in 10.0 mi SSE 3.5 mph - N/A   Clear
4:53 AM -34.1 °F -49.7 °F - N/A% 30.10 in 10.0 mi South 4.6 mph - N/A   Clear
5:53 AM -38.9 °F - - N/A% 30.13 in 10.0 mi Calm Calm - N/A   Clear
6:53 AM -36.0 °F - - N/A% 30.12 in 10.0 mi Calm Calm - N/A   Clear
7:53 AM -38.0 °F - - N/A% 30.13 in 6.0 mi Calm Calm - N/A   Haze
8:53 AM -36.9 °F -50.1 °F - N/A% 30.12 in 7.0 mi SSE 3.5 mph - N/A   Clear
9:53 AM -36.9 °F - - N/A% 30.11 in 5.0 mi Calm Calm - N/A   Haze
10:53 AM -34.1 °F -49.7 °F - N/A% 30.10 in 10.0 mi ESE 4.6 mph - N/A   Partly Cloudy
11:53 AM -33.0 °F -45.5 °F - N/A% 30.09 in 10.0 mi ESE 3.5 mph - N/A   Partly Cloudy
12:53 PM -33.0 °F -52.7 °F - N/A% 30.07 in 10.0 mi ESE 6.9 mph - N/A   Partly Cloudy
3:53 PM -31.0 °F - - N/A% 30.00 in 10.0 mi Calm Calm - N/A   Clear
4:53 PM -29.9 °F - - N/A% 29.98 in 10.0 mi Calm Calm - N/A   Clear
5:53 PM -29.9 °F -47.1 °F - N/A% 29.96 in 10.0 mi SE 5.8 mph - N/A   Clear
6:53 PM -22.0 °F -46.6 °F -29.0 °F 70% 29.92 in 10.0 mi ESE 13.8 mph - N/A   Clear
7:53 PM -17.0 °F -41.1 °F -24.0 °F 70% 29.89 in 10.0 mi ESE 15.0 mph 21.9 mph N/A   Clear
8:53 PM -17.0 °F -43.3 °F -24.0 °F 70% 29.86 in 10.0 mi ESE 18.4 mph 25.3 mph N/A   Clear
9:53 PM -15.0 °F -43.7 °F -22.0 °F 71% 29.83 in 8.0 mi ESE 24.2 mph 31.1 mph N/A   Clear
10:25 PM -14.8 °F -45.5 °F -20.2 °F 77% 29.57 in 4.0 mi ESE 28.8 mph 35.7 mph N/A   Haze
10:53 PM -14.1 °F -44.5 °F -20.9 °F 71% 29.80 in 3.0 mi ESE 28.8 mph 40.3 mph 0.00 in   Clear
11:06 PM -14.8 °F -46.4 °F -20.2 °F 77% 29.56 in 2.5 mi ESE 31.1 mph 40.3 mph 0.00 in   Partly Cloudy
11:16 PM -14.8 °F -46.8 °F -22.0 °F 70% 29.55 in 3.0 mi ESE 32.2 mph 41.4 mph 0.00 in   Partly Cloudy
11:53 PM -14.1 °F -44.5 °F -22.0 °F 68% 29.79 in 4.0 mi ESE 28.8 mph 40.3 mph 0.00 in   Partly Cloudy